Tracking 21092 objects as of 14-Aug-2020
HD Live streaming from Space Station
objects crossing your sky now
Track the most recent launched group of Starlink satellites

STARLINK-1510

Track STARLINK-1510 now!
10-day predictions
STARLINK-1510 is classified as:


NORAD ID: 45784
Int'l Code: 2020-038BG
Perigee: 385.8 km
Apogee: 387.7 km
Inclination: 53.0 °
Period: 92.1 minutes
Semi major axis: 6757 km
RCS: Unknown
Launch date: June 13, 2020
Source: United States (US)
Launch site: AIR FORCE EASTERN TEST RANGE (AFETR)
aabbcc
Your satellite tracking list
Your tracking list is empty




NASA's NSSDC Master Catalog

Two Line Element Set (TLE):
1 45784U 20038BG  20227.25001157 -.00031551  00000-0 -33978-3 0  9995
2 45784  52.9999 353.0807 0001414  32.7158 282.2603 15.62773736 10815
Source of the keplerian elements: AFSPC